Total_Precipitation_Accumulation
0.00 0.00 0.00 0.00 0.00 0.00 0.00 0.00 0.00 0.00 0.00 0.00 0.00 0.00 0.00 0.00 0.00 0.00 0.00 0.00 0.00 0.01 0.01 0.01 0.01 0.01 0.02 0.03 0.03 0.04 0.05 0.05 0.07 0.10 0.11 0.14 0.17 0.18 0.19 0.24 0.38 0.51 0.54
0.00 0.00 0.00 0.00 0.00 0.00 0.00 0.00 0.00 0.00 0.00 0.00 0.00 0.00 0.00 0.00 0.00 0.00 0.00 0.00 0.00 0.00 0.00 0.00 0.01 0.01 0.01 0.01 0.01 0.02 0.03 0.03 0.02 0.07 0.12 0.10 0.09 0.13 0.14 0.13 0.22 0.34 0.43
0.00 0.00 0.00 0.00 0.00 0.00 0.00 0.00 0.00 0.00 0.00 0.00 0.00 0.00 0.00 0.00 0.00 0.00 0.00 0.00 0.00 0.00 0.00 0.00 0.00 0.00 0.01 0.01 0.01 0.02 0.04 0.05 0.04 0.06 0.20 0.28 0.18 0.11 0.06 0.08 0.13 0.16 0.20
0.00 0.00 0.00 0.00 0.00 0.00 0.00 0.00 0.00 0.00 0.00 0.00 0.00 0.00 0.00 0.00 0.00 0.00 0.00 0.00 0.00 0.00 0.00 0.00 0.00 0.01 0.01 0.01 0.02 0.02 0.04 0.08 0.09 0.07 0.10 0.18 0.23 0.28 0.14 0.03 0.03 0.03 0.05
0.00 0.00 0.00 0.00 0.00 0.00 0.00 0.00 0.00 0.00 0.00 0.00 0.00 0.00 0.00 0.00 0.00 0.00 0.00 0.00 0.00 0.00 0.00 0.00 0.01 0.01 0.01 0.02 0.03 0.03 0.05 0.08 0.11 0.13 0.13 0.12 0.12 0.17 0.27 0.12 0.03 0.03 0.03
0.00 0.00 0.00 0.00 0.00 0.00 0.00 0.00 0.00 0.00 0.00 0.00 0.00 0.00 0.00 0.00 0.00 0.00 0.00 0.00 0.01 0.01 0.00 0.01 0.01 0.01 0.02 0.03 0.04 0.05 0.07 0.09 0.11 0.14 0.17 0.22 0.24 0.19 0.25 0.21 0.06 0.03 0.03
0.00 0.00 0.00 0.00 0.00 0.00 0.00 0.00 0.00 0.00 0.00 0.00 0.00 0.00 0.00 0.00 0.00 0.00 0.00 0.01 0.02 0.02 0.01 0.01 0.02 0.03 0.04 0.05 0.07 0.10 0.11 0.12 0.14 0.17 0.19 0.21 0.23 0.22 0.27 0.30 0.17 0.06 0.02
0.00 0.00 0.00 0.00 0.00 0.00 0.00 0.00 0.00 0.00 0.00 0.00 0.00 0.00 0.00 0.00 0.00 0.00 0.01 0.01 0.03 0.02 0.02 0.02 0.02 0.03 0.05 0.07 0.10 0.14 0.15 0.17 0.19 0.19 0.21 0.23 0.20 0.22 0.28 0.34 0.39 0.29 0.09
0.00 0.00 0.00 0.00 0.00 0.00 0.00 0.00 0.00 0.00 0.00 0.00 0.00 0.00 0.00 0.00 0.00 0.00 0.01 0.01 0.01 0.01 0.02 0.03 0.05 0.06 0.08 0.09 0.12 0.15 0.17 0.20 0.23 0.25 0.27 0.29 0.25 0.24 0.26 0.31 0.44 0.60 0.41
0.00 0.00 0.00 0.00 0.00 0.00 0.00 0.00 0.00 0.00 0.00 0.00 0.00 0.00 0.00 0.00 0.00 0.00 0.01 0.01 0.01 0.02 0.02 0.04 0.07 0.11 0.14 0.15 0.17 0.19 0.19 0.21 0.24 0.28 0.32 0.34 0.35 0.33 0.33 0.33 0.35 0.46 0.56
0.00 0.00 0.00 0.00 0.00 0.00 0.00 0.00 0.00 0.00 0.00 0.00 0.00 0.00 0.00 0.00 0.01 0.02 0.02 0.03 0.03 0.03 0.05 0.07 0.10 0.13 0.18 0.22 0.25 0.26 0.27 0.28 0.28 0.28 0.31 0.33 0.37 0.43 0.43 0.42 0.41 0.39 0.44
0.00 0.00 0.00 0.00 0.00 0.00 0.00 0.01 0.01 0.01 0.00 0.00 0.00 0.00 0.00 0.01 0.02 0.04 0.06 0.06 0.06 0.07 0.09 0.12 0.16 0.20 0.23 0.26 0.33 0.36 0.37 0.42 0.41 0.38 0.37 0.39 0.41 0.45 0.48 0.50 0.49 0.43 0.39
0.00 0.00 0.00 0.00 0.00 0.01 0.01 0.02 0.02 0.01 0.00 0.00 0.00 0.00 0.00 0.01 0.03 0.06 0.10 0.15 0.19 0.21 0.23 0.26 0.31 0.38 0.41 0.43 0.46 0.50 0.58 0.64 0.62 0.60 0.59 0.54 0.52 0.55 0.52 0.53 0.54 0.48 0.41
0.00 0.00 0.00 0.00 0.01 0.01 0.02 0.02 0.01 0.01 0.01 0.00 0.00 0.00 0.01 0.04 0.06 0.09 0.15 0.24 0.34 0.41 0.46 0.50 0.54 0.59 0.67 0.78 0.83 0.81 0.81 0.81 0.78 0.76 0.77 0.76 0.75 0.74 0.71 0.69 0.62 0.57 0.55
0.00 0.00 0.00 0.01 0.02 0.02 0.02 0.02 0.01 0.01 0.01 0.01 0.01 0.02 0.05 0.10 0.17 0.20 0.23 0.31 0.40 0.48 0.52 0.53 0.55 0.59 0.81 1.15 1.27 1.11 0.90 0.76 0.72 0.70 0.72 0.79 0.90 0.94 0.97 1.02 0.88 0.75 0.74
0.00 0.01 0.01 0.02 0.03 0.03 0.03 0.02 0.02 0.03 0.02 0.02 0.03 0.06 0.11 0.18 0.25 0.29 0.32 0.39 0.45 0.48 0.47 0.48 0.48 0.50 0.67 1.07 1.21 0.93 0.64 0.52 0.55 0.60 0.58 0.59 0.71 0.78 0.83 0.95 0.95 0.94 0.99
0.01 0.01 0.03 0.03 0.04 0.04 0.04 0.04 0.03 0.03 0.02 0.04 0.06 0.10 0.13 0.17 0.20 0.23 0.28 0.33 0.31 0.27 0.29 0.35 0.34 0.34 0.45 0.81 0.94 0.65 0.36 0.26 0.31 0.39 0.43 0.44 0.51 0.62 0.64 0.67 0.67 0.74 0.86
0.04 0.04 0.04 0.04 0.03 0.03 0.03 0.03 0.02 0.01 0.02 0.04 0.07 0.10 0.12 0.16 0.14 0.13 0.17 0.20 0.17 0.16 0.19 0.21 0.18 0.15 0.23 0.56 0.75 0.53 0.23 0.16 0.21 0.28 0.33 0.33 0.37 0.50 0.67 0.73 0.61 0.55 0.65
0.04 0.04 0.04 0.03 0.02 0.02 0.02 0.02 0.01 0.01 0.02 0.04 0.05 0.07 0.10 0.14 0.12 0.10 0.11 0.14 0.14 0.13 0.12 0.11 0.08 0.06 0.10 0.38 0.70 0.55 0.21 0.16 0.16 0.21 0.29 0.28 0.25 0.41 0.55 0.60 0.54 0.44 0.48
0.02 0.03 0.02 0.01 0.01 0.01 0.01 0.01 0.00 0.00 0.01 0.02 0.03 0.03 0.04 0.06 0.05 0.04 0.03 0.04 0.06 0.06 0.06 0.04 0.04 0.03 0.04 0.20 0.62 0.68 0.29 0.20 0.15 0.16 0.22 0.30 0.30 0.38 0.43 0.44 0.46 0.49 0.46
0.01 0.01 0.01 0.01 0.00 0.00 0.00 0.00 0.00 0.00 0.00 0.00 0.00 0.00 0.00 0.01 0.01 0.02 0.02 0.02 0.03 0.03 0.03 0.03 0.03 0.02 0.03 0.07 0.38 0.76 0.53 0.31 0.20 0.19 0.24 0.26 0.28 0.31 0.33 0.35 0.41 0.53 0.43
0.00 0.00 0.00 0.00 0.00 0.00 0.00 0.00 0.00 0.00 0.00 0.00 0.00 0.00 0.00 0.01 0.01 0.02 0.02 0.02 0.03 0.04 0.04 0.04 0.03 0.03 0.02 0.06 0.24 0.51 0.62 0.46 0.27 0.25 0.19 0.19 0.20 0.21 0.23 0.26 0.33 0.31 0.29
0.00 0.00 0.00 0.00 0.00 0.00 0.00 0.00 0.00 0.00 0.00 0.00 0.00 0.00 0.01 0.01 0.02 0.02 0.03 0.03 0.04 0.06 0.08 0.07 0.06 0.05 0.05 0.08 0.21 0.26 0.30 0.38 0.33 0.34 0.30 0.18 0.14 0.15 0.15 0.17 0.22 0.23 0.27
0.00 0.00 0.00 0.00 0.00 0.00 0.00 0.00 0.00 0.00 0.00 0.00 0.01 0.01 0.01 0.02 0.02 0.03 0.04 0.05 0.08 0.19 0.23 0.18 0.14 0.10 0.09 0.19 0.36 0.26 0.16 0.21 0.28 0.30 0.25 0.16 0.13 0.12 0.10 0.08 0.11 0.16 0.22
0.00 0.00 0.00 0.00 0.00 0.00 0.00 0.00 0.00 0.00 0.00 0.01 0.01 0.01 0.02 0.03 0.03 0.04 0.04 0.06 0.09 0.27 0.40 0.31 0.30 0.29 0.30 0.39 0.49 0.40 0.35 0.33 0.33 0.31 0.26 0.19 0.16 0.16 0.14 0.10 0.08 0.10 0.15
0.00 0.00 0.00 0.00 0.00 0.00 0.00 0.00 0.00 0.00 0.01 0.01 0.02 0.02 0.04 0.04 0.04 0.05 0.05 0.05 0.08 0.14 0.17 0.19 0.27 0.28 0.38 0.40 0.34 0.34 0.35 0.34 0.32 0.31 0.29 0.19 0.14 0.13 0.12 0.11 0.10 0.08 0.10